Location: Newark
(33.2833°N, 8.3333°W)
Time: 14:02:29
(UTC+00:00)

Hubble Space Telescope - Pass Details

Date: 16 September 2019
Orbit: 536 x 540 km, 28.5° (Epoch: 19 October)

Event Time Altitude Azimuth Distance (km) Brightness Sun altitude
Exits shadow 05:15:12 21° 238° (WSW) 1,223 2.0 -13.6°
Maximum altitude 05:17:31 42° 178° (S) 766 1.4 -13.2°
Drops below altitude 10° 05:21:25 10° 107° (ESE) 1,782 4.4 -12.4°
Sets 05:23:45 0° 100° (E) 2,673 5.8 -11.9°
